Regional Weather Roundup
Issued by NWS Bismarck, ND

Home | Current Version | Previous Version | Text Only | Print | Product List | Glossary On
Versions: 1 2 3 4 5 6 7 8 9 10 11 12 13 14 15 16 17 18 19 20 21 22 23 24 25 26 27 28 29 30 31 32 33 34 35 36 37 38 39 40 41 42 43 44 45 46 47 48 49 50
000
ASUS43 KBIS 310910
RWRBIS

NWR BROADCAST TEXT
NATIONAL WEATHER SERVICE BISMARCK ND
400 AM CDT SUN JUL 31 2016

NOTE: "FAIR" INDICATES FEW OR NO CLOUDS BELOW 12,000 FEET WITH NO
SIGNIFICANT WEATHER AND/OR OBSTRUCTIONS TO VISIBILITY.


CITY           SKY/WX    TMP DP  RH WIND       PRES   REMARKS
WILLISTON      CLOUDY    72  61  68 S5        29.68F
MINOT          CLOUDY    66  61  84 E6        29.75S
MINOT AFB      CLOUDY    61  60  95 SE7       29.74S
BISMARCK       CLEAR     67  64  90 SE9       29.77S
DICKINSON      CLOUDY    66  60  81 W13G24    29.78R
GARRISON         N/A     65  63  93 SE6       29.76S
HETTINGER ARPT CLEAR     65  58  78 S7        29.80R
JAMESTOWN      CLEAR     63  60  90 SE10      29.83F
CARRINGTON     FAIR      63  61  94 SE14      29.84S
HAZEN          FAIR      66  63  88 CALM      29.78R
LINTON         FAIR      66  66 100 S16G23    29.81S
MANDAN         FAIR      68  64  88 SE13      29.79R
OAKES            N/A    N/A N/A N/A MISG        N/A
STANLEY        FAIR      64  64 100 SE7       29.77F
WATFORD CITY   FAIR      72  61  68 SE8       29.70F
$$

CITY           SKY/WX    TMP DP  RH WIND       PRES   REMARKS
GRAND FORKS    CLEAR     62  58  86 SE7       29.86F
GRAND FORKS AF CLEAR     64  57  80 S7        29.86F
DEVILS LAKE    CLOUDY    67  61  81 SE13      29.83F
FARGO          CLEAR     67  56  67 SE14G20   29.88F
CAVALIER       FAIR      64  59  82 S8        29.85F
GRAFTON        FAIR      63  61  94 SE9       29.87F
GWINNER        FAIR      63  61  94 SE7       29.88S
LANGDON        FAIR      64  61  88 S9        29.85F
ROLLA          FAIR      63  63 100 S5        29.83F
$$

CITY           SKY/WX    TMP DP  RH WIND       PRES   REMARKS
ABERDEEN       PTCLDY    67  61  81 SE10      29.84F
MOBRIDGE       CLOUDY    71  64  78 S15       29.77S
BUFFALO          N/A     65  58  78 S9        29.72R
RAPID CITY     CLOUDY    66  56  70 SW20      29.82F
GLASGOW        CLEAR     67  57  70 SE15G21   29.60F
SIDNEY         CLOUDY    70  56  61 SW6       29.66S
WOLF POINT     CLEAR     72  55  55 VRB3      29.65F
GLENDIVE       PTCLDY    71  57  61 SE18      29.71F
MILES CITY     CLEAR     76  49  38 E12       29.68S
BAKER          CLEAR     65  56  72 E9        29.76R
$$

CITY           SKY/WX    TMP DP  RH WIND       PRES   REMARKS
BILLINGS       CLEAR     75  46  35 SW15      29.71R
GREAT FALLS    CLEAR     60  47  61 NW14      29.79R
REGINA         PTCLDY    64  59  82 SE14G22   29.68S
ESTEVAN        CLEAR     63  61  94 E9        29.71F
$$





USA.gov is the U.S. government's official web portal to all federal, state and local government web resources and services.